Regional Weather Roundup
Issued by NWS

Home | Current Version | Previous Version | Text Only | Print | Product List | Glossary Off
Versions: 1 2 3 4 5 6 7 8 9 10 11 12 13 14 15 16 17 18 19 20 21 22 23 24 25 26 27 28 29 30 31 32 33 34 35 36 37 38 39 40 41 42 43 44 45 46 47 48 49 50

000
ASUS43 KMPX 271801
RWRMN
WEATHER ROUNDUP FOR MINNESOTA
NATIONAL WEATHER SERVICE TWIN CITIES/CHANHASSEN MN
100 PM CDT FRI MAY 27 2016


NOTE: "FAIR" INDICATES FEW OR NO CLOUDS BELOW 12,000 FEET WITH NO
SIGNIFICANT WEATHER AND/OR OBSTRUCTIONS TO VISIBILITY. N/A MEANS
CURRENT SKY AND/OR WEATHER CONDITIONS ARE NOT AVAILABLE.

MNZ060>063-068>070-271900-
   Twin Cities Metro

CITY           SKY/WX    TMP DP  RH WIND       PRES   REMARKS
TWIN CITIES    LGT RAIN  64  60  87 CALM      29.80F FOG
6HR MIN TEMP:  64; 6HR MAX TEMP:  68; 6HR PCP:  0.13;

ST PAUL        LGT RAIN  63  60  90 CALM      29.80F FOG
CRYSTAL        LGT RAIN  64  60  87 CALM      29.80S FOG
BLAINE         LGT RAIN  64  63  94 CALM      29.81F
EDEN PRAIRIE   LGT RAIN  65  61  87 E5        29.79F FOG
6HR MIN TEMP:  64; 6HR MAX TEMP:  68; 6HR PCP:  0.24;

SOUTH ST PAUL  HVY RAIN  64  61  88 CALM      29.80F
LAKE ELMO      LGT RAIN  63  61  94 W3        29.82S
$$
MNZ001>005-007-008-013>017-022>024-027-028-271900-
   Northwest Minnesota

CITY           SKY/WX    TMP DP  RH WIND       PRES   REMARKS
BEMIDJI        CLOUDY    70  56  60 SE17      29.83S
HALLOCK        SUNNY     68  55  64 W6        29.80F
ROSEAU         PTSUNNY   70  61  73 CALM      29.81S
WARROAD        MOSUNNY   66  61  82 NE9       29.82F
THIEF RVR FALL MOSUNNY   72  54  53 CALM      29.80F
CROOKSTON      PTSUNNY   70  57  64 CALM      29.79F
FOSSTON        CLOUDY    75  63  64 E7        29.78F
DETROIT LAKES  PTSUNNY   72  54  53 SE14G20   29.79S
MOORHEAD       PTSUNNY   75  57  53 N10       29.75F
PARK RAPIDS    PTSUNNY   69  55  60 SE15      29.81S
MAHNOMEN       FAIR      74  54  48 E9        29.76F
$$
MNZ006-009>011-018-025>026-271900-
   North Central Minnesota

CITY           SKY/WX    TMP DP  RH WIND       PRES   REMARKS
BAUDETTE       MOSUNNY   71  53  52 N5        29.81F
FLAG ISLAND    MOSUNNY   61  55  82 S5        29.83S
INTL FALLS     CLOUDY    68  53  58 S10G24    29.86R
6HR MIN TEMP:  52; 6HR MAX TEMP:  72;

WASKISH        CLOUDY    72  55  56 SE15G23   29.82S
BIG FORK       LGT RAIN  61  57  88 SE7       29.89S
LONGVILLE      LGT RAIN  59  57  94 E7        29.87R
GRAND RAPIDS   RAIN      58  56  93 NE5       29.91R FOG
CRANE LAKE     LGT RAIN  64  54  68 S7        29.91R
ORR            DRIZZLE   61  54  77 S7        29.89R
COOK           LGT RAIN  59  55  88 S9G16     29.92R
WALKER         CLOUDY    63  56  78 SE10      29.84R
$$
MNZ012-019>021-037-271900-
   Northeast Minnesota

CITY           SKY/WX    TMP DP  RH WIND       PRES   REMARKS
DULUTH         LGT RAIN  61  56  83 NE6       29.90S
6HR MIN TEMP:  53; 6HR MAX TEMP:  62; 6HR PCP:  0.05;

ELY            LGT RAIN  63  57  82 S6        29.93R
HIBBING        LGT RAIN  58  56  93 E3        29.91S
EVELETH        RAIN      59  57  94 CALM      29.93S
DULUTH HARBOR  DRIZZLE   46  45  93 NE6       29.92S
TWO HARBORS    LGT RAIN  63  57  82 CALM      29.89S
SILVER BAY     LGT RAIN  63  55  77 CALM      29.90R
GRAND MARAIS     N/A     44  42  93 VRB5      29.93R
G MARAIS ARPRT MOSUNNY   64  52  63 SE3       29.94R
$$
MNZ029>031-032-039>041-046>048-054>057-064-271900-
   West Central Minnesota

CITY           SKY/WX    TMP DP  RH WIND       PRES   REMARKS
FERGUS FALLS   CLOUDY    66  55  68 E8G16     29.74R
WHEATON        CLOUDY    70  59  68 E16       29.78S
MORRIS         DRIZZLE   64  63  94 CALM      29.77S
ALEXANDRIA     LGT RAIN  65  60  84 W3        29.79R
ELBOW LAKE     FAIR      64  59  82 SE3       29.78S
WADENA         LGT RAIN  66  57  72 E10       29.79F
GLENWOOD       CLOUDY    72  57  60 SE14      29.79S
APPLETON       CLOUDY    66  57  72 W13       29.76S
BENSON         CLOUDY    64  61  88 N9        29.76S
ORTONVILLE     LGT RAIN  63  57  82 SW5       29.78S
MADISON        PTSUNNY   66  57  72 NW12      29.76F
WILLMAR        FAIR      72  59  64 SE6       29.78F
$$
MNZ033>034-036-042>043-049>051-058-059-271900-
   Central Minnesota

CITY           SKY/WX    TMP DP  RH WIND       PRES   REMARKS
ST CLOUD       RAIN      62  61  96 SE8       29.81F FOG
6HR MIN TEMP:  59; 6HR MAX TEMP:  67; 6HR PCP:  0.14;

SAUK CENTRE    MOCLDY    68  58  70 SE13      29.79S
PAYNESVILLE    LGT RAIN  65  60  83 SE9       29.80S
AITKIN         MIX PCPN  63  57  82 SE7       29.85S
PINE RIVER     CLOUDY    63  59  88 SE13      29.87S
BRAINERD       LGT RAIN  61  60  97 SE7       29.84S
STAPLES        PTSUNNY   66  55  68 SE13G18   29.81S
LONG PRAIRIE   CLOUDY    66  57  72 E15G23    29.81R
LITTLE FALLS   LGT RAIN  63  59  88 SE7       29.82S
LITCHFIELD     DRIZZLE   66  64  94 SE8       29.79F
BUFFALO        RAIN      63  60  88 E7        29.82S
MAPLE LAKE     RAIN      64  62  94 SE7       29.82S
HUTCHINSON     DRIZZLE   66  63  89 E5        29.80F
$$
MNZ037-044-045-052-053-271900-
   East Central Minnesota

CITY           SKY/WX    TMP DP  RH WIND       PRES   REMARKS
PRINCETON      LGT RAIN  64  63  94 E6        29.83S
MORA           RAIN      59  57  94 CALM      29.86F
CAMBRIDGE      LGT RAIN  64  55  72 CALM      29.81F
RUSH CITY      LGT RAIN  63  61  93 N3        29.82F
MOOSE LAKE     LGT RAIN  59  55  88 NE3       29.85F
HINCKLEY       LGT RAIN  63  61  94 CALM      29.84F
CLOQUET        LGT RAIN  57  55  94 E5        29.89F
MCGREGOR       CLOUDY    61  59  94 CALM      29.87F
$$
MNZ071>073-080-081-089-090-097-098-271900-
   Southwest Minnesota

CITY           SKY/WX    TMP DP  RH WIND       PRES   REMARKS
MONTEVIDEO     CLOUDY    77  55  47 W6        29.76S
GRANITE FALLS  CLOUDY    73  57  55 S9        29.76S
CANBY          CLOUDY    68  60  74 W9        29.78S
MARSHALL       CLOUDY    71  56  58 W10G18    29.76S
REDWOOD FALLS  CLOUDY    72  58  61 SE10      29.75F
OLIVIA         PTSUNNY   68  57  68 S7        29.76F
PIPESTONE      MOSUNNY   70  55  60 NW3       29.77S
WINDOM         PTSUNNY   70  57  64 CALM      29.77S
WORTHINGTON    PTSUNNY   68  57  68 CALM      29.77F
JACKSON        CLOUDY    70  54  56 SW3       29.78R
TRACY          CLOUDY    73  57  57 SW8       29.77R
SLAYTON        PTSUNNY   71  52  50 E5        29.77F
$$
MNZ065>067-074>077-082>085-091>093-271900-
   South Central Minnesota

CITY           SKY/WX    TMP DP  RH WIND       PRES   REMARKS
MANKATO        CLOUDY    66  61  82 S13       29.78F
NEW ULM        CLOUDY    66  61  82 SE6       29.77F
ST JAMES       PTSUNNY   63  55  77 SE7       29.78S
FAIRMONT       CLOUDY    66  59  77 SE8       29.77S
GLENCOE        CLOUDY    67  65  93 E12       29.78F
OWATONNA       RAIN      64  61  88 CALM      29.80S VSB 1
WASECA         RAIN      63  59  88 E8        29.81S
ALBERT LEA     LGT RAIN  64  61  88 CALM      29.79F
$$
MNZ078>079-086>088-094>096-271900-
   Southeast Minnesota

CITY           SKY/WX    TMP DP  RH WIND       PRES   REMARKS
ROCHESTER      LGT RAIN  65  64  97 E7        29.79F FOG
6HR MIN TEMP:  62; 6HR MAX TEMP:  67; 6HR PCP:  0.11;

RED WING       LGT RAIN  68  63  83 SE3       29.78F
STANTON        LGT RAIN  65  59  79 CALM      29.78F
DODGE CENTER   HVY RAIN  63  61  94 CALM      29.82R
WINONA         RAIN      70  63  78 SE6       29.78F
AUSTIN         HVY RAIN  63  61  94 NE3       29.79F
PRESTON        CLOUDY    66  63  89 SE6       29.79F
$$
ABBREVIATIONS USED IN REMARKS
   TC - TEMPERATURES IN CELSIUS
  WCI - WIND CHILL INDEX
   HX - HEAT INDEX
  VSB - VISIBILITY
$$




USA.gov is the U.S. government's official web portal to all federal, state and local government web resources and services.